Coolidge Muni, Coolidge, AZ

11:04 PM MST on December 09, 2019 (GMT -0700)
Coolidge Muni, Coolidge

Weather History for KP08 - September, 2019

Change the Weather History Date:

Wednesday, September 25, 2019

  Actual Average (KCGZ) Record (KCGZ)
Temperature  
Mean Temperature 79 °F -  
Max Temperature 89 °F 93 °F 102 °F (2002)
Min Temperature 69 °F 65 °F 55 °F (2007)
Cooling Degree Days 14    
Growing Degree Days 29 (Base 50)    
Moisture  
Dew Point 58 °F    
Average Humidity 51    
Maximum Humidity 68    
Minimum Humidity 29    
Precipitation  
Precipitation 0.00 in - - ()
Sea Level Pressure  
Sea Level Pressure 29.88 in    
Wind  
Wind Speed 7 mph ()    
Max Wind Speed 15 mph    
Max Gust Speed 18 mph    
Visibility 10.0 miles    
Events      
Averages and records for this station are not official NWS values.
T = Trace of Precipitation, MM = Missing Value Source: Averaged Metar Reports

Daily Weather History Graph

Daily Weather History Graph

Search for Another Location

Airport or City:

Astronomy

Sep. 25, 2019 Rise Set
Actual Time 6:15 AM MST 6:18 PM MST
Civil Twilight 5:51 AM MST 6:43 PM MST
Nautical Twilight 5:22 AM MST 7:11 PM MST
Astronomical Twilight 4:53 AM MST 7:40 PM MST
Moon 2:30 AM MST (9/25) 4:38 PM MST (9/25)
Length of Visible Light 12h 52m
Length of Day
12h 02m
Waning Crescent, 13% of the Moon is Illuminated
Sep 25
Waning Crescent
Sep 28
New
Oct 5
First Quarter
Oct 13
Full
Oct 21
Last Quarter

Hourly Weather History & Observations

Time (MST) Temp. Heat Index Dew Point Humidity Pressure Visibility Wind Dir Wind Speed Gust Speed Precip Events Conditions
12:15 AM 73.4 °F - 59.0 °F 61% 29.86 in 10.0 mi ESE 6.9 mph - N/A   Scattered Clouds
12:35 AM 71.6 °F - 59.0 °F 64% 29.87 in 10.0 mi SE 8.1 mph - N/A   Partly Cloudy
12:55 AM 71.6 °F - 59.0 °F 64% 29.86 in 10.0 mi SE 8.1 mph - N/A   Scattered Clouds
1:15 AM 71.6 °F - 59.0 °F 64% 29.87 in 10.0 mi North 6.9 mph - N/A   Mostly Cloudy
1:35 AM 71.6 °F - 59.0 °F 64% 29.87 in 10.0 mi North 9.2 mph - N/A   Partly Cloudy
1:55 AM 71.6 °F - 59.0 °F 64% 29.86 in 10.0 mi ENE 6.9 mph - N/A   Partly Cloudy
2:15 AM 71.6 °F - 59.0 °F 64% 29.86 in 10.0 mi ENE 8.1 mph - N/A   Mostly Cloudy
2:30 AM 71.6 °F - 59.0 °F 64% 29.86 in 10.0 mi ENE 9.2 mph - N/A   Overcast
2:55 AM 71.6 °F - 59.0 °F 64% 29.85 in 10.0 mi NE 8.1 mph - N/A   Scattered Clouds
3:15 AM 71.6 °F - 59.0 °F 64% 29.85 in 10.0 mi NE 6.9 mph - N/A   Clear
3:35 AM 71.6 °F - 57.2 °F 60% 29.85 in 10.0 mi NE 8.1 mph - N/A   Clear
3:55 AM 69.8 °F - 57.2 °F 64% 29.86 in 10.0 mi ENE 6.9 mph - N/A   Clear
4:15 AM 71.6 °F - 57.2 °F 60% 29.87 in 10.0 mi ENE 10.4 mph - N/A   Scattered Clouds
4:35 AM 71.6 °F - 57.2 °F 60% 29.87 in 10.0 mi East 8.1 mph - N/A   Overcast
4:55 AM 71.6 °F - 57.2 °F 60% 29.87 in 10.0 mi ENE 9.2 mph - N/A   Overcast
5:15 AM 73.4 °F - 57.2 °F 57% 29.88 in 10.0 mi SE 10.4 mph - N/A   Overcast
5:30 AM 71.6 °F - 59.0 °F 64% 29.89 in 10.0 mi ESE 11.5 mph - N/A   Overcast
5:55 AM 73.4 °F - 59.0 °F 61% 29.90 in 10.0 mi SE 10.4 mph - N/A   Overcast
6:15 AM 71.6 °F - 59.0 °F 64% 29.89 in 10.0 mi East 8.1 mph - N/A   Overcast
6:35 AM 71.6 °F - 59.0 °F 64% 29.88 in 10.0 mi NE 8.1 mph - N/A   Mostly Cloudy
6:55 AM 69.8 °F - 59.0 °F 68% 29.88 in 10.0 mi Calm Calm - N/A   Partly Cloudy
7:15 AM 71.6 °F - 59.0 °F 64% 29.88 in 10.0 mi Calm Calm - N/A   Clear
7:35 AM 71.6 °F - 59.0 °F 64% 29.90 in 10.0 mi SSE 5.8 mph - N/A   Clear
7:55 AM 71.6 °F - 59.0 °F 64% 29.91 in 10.0 mi Calm Calm - N/A   Clear
8:15 AM 73.4 °F - 59.0 °F 61% 29.92 in 10.0 mi Calm Calm - N/A   Clear
8:35 AM 73.4 °F - 59.0 °F 61% 29.92 in 10.0 mi East 3.5 mph - N/A   Clear
8:55 AM 75.2 °F - 59.0 °F 57% 29.93 in 10.0 mi SE 8.1 mph - N/A   Clear
9:15 AM 77.0 °F - 59.0 °F 54% 29.93 in 10.0 mi SSE 8.1 mph - N/A   Clear
9:35 AM 77.0 °F - 59.0 °F 54% 29.93 in 10.0 mi SE 11.5 mph 18.4 mph N/A   Clear
9:55 AM 77.0 °F - 60.8 °F 57% 29.94 in 10.0 mi SE 11.5 mph - N/A   Clear
10:15 AM 78.8 °F - 59.0 °F 51% 29.93 in 10.0 mi SE 13.8 mph - N/A   Clear
10:35 AM 78.8 °F - 59.0 °F 51% 29.94 in 10.0 mi SE 12.7 mph - N/A   Clear
10:55 AM 78.8 °F - 59.0 °F 51% 29.93 in 10.0 mi SSE 10.4 mph - N/A   Clear
11:15 AM 78.8 °F - 59.0 °F 51% 29.93 in 10.0 mi South 4.6 mph - N/A   Clear
11:35 AM 78.8 °F - 60.8 °F 54% 29.94 in 10.0 mi South 6.9 mph - N/A   Clear
11:55 AM 80.6 °F 81.5 °F 60.8 °F 51% 29.93 in 10.0 mi Variable 4.6 mph - N/A   Clear
12:15 PM 80.6 °F 81.5 °F 60.8 °F 51% 29.92 in 10.0 mi WSW 5.8 mph - N/A   Clear
12:35 PM 82.4 °F 82.9 °F 60.8 °F 48% 29.90 in 10.0 mi North - - N/A   Clear
12:55 PM 84.2 °F 83.5 °F 57.2 °F 40% 29.88 in 10.0 mi East 6.9 mph - N/A   Clear
1:15 PM 86.0 °F 84.9 °F 57.2 °F 37% 29.86 in 10.0 mi SSE 8.1 mph - N/A   Clear
1:35 PM 86.0 °F 84.9 °F 57.2 °F 37% 29.85 in 10.0 mi ENE 10.4 mph - N/A   Clear
1:55 PM 86.0 °F 84.9 °F 57.2 °F 37% 29.84 in 10.0 mi Calm Calm 12.7 mph N/A   Clear
2:15 PM 87.8 °F 86.1 °F 55.4 °F 33% 29.83 in 10.0 mi North 8.1 mph 13.8 mph N/A   Clear
2:35 PM 87.8 °F 85.7 °F 53.6 °F 31% 29.83 in 10.0 mi Variable 3.5 mph 12.7 mph N/A   Partly Cloudy
2:55 PM 89.6 °F 87.3 °F 53.6 °F 29% 29.82 in 10.0 mi Calm Calm - N/A   Clear
3:15 PM 89.6 °F 87.3 °F 53.6 °F 29% 29.82 in 10.0 mi Variable 3.5 mph 11.5 mph N/A   Scattered Clouds
3:35 PM 89.6 °F 87.7 °F 55.4 °F 31% 29.81 in 10.0 mi West 8.1 mph - N/A   Mostly Cloudy
3:55 PM 89.6 °F 87.7 °F 55.4 °F 31% 29.81 in 10.0 mi SW 5.8 mph - N/A   Scattered Clouds
4:15 PM 89.6 °F 87.7 °F 55.4 °F 31% 29.80 in 10.0 mi Variable 6.9 mph - N/A   Partly Cloudy
4:35 PM 89.6 °F 87.3 °F 53.6 °F 29% 29.81 in 10.0 mi Variable 3.5 mph - N/A   Scattered Clouds
4:55 PM 89.6 °F 87.7 °F 55.4 °F 31% 29.80 in 10.0 mi SW 5.8 mph - N/A   Mostly Cloudy
5:15 PM 89.6 °F 87.3 °F 53.6 °F 29% 29.80 in 10.0 mi WSW 6.9 mph - N/A   Mostly Cloudy
5:35 PM 89.6 °F 87.3 °F 53.6 °F 29% 29.80 in 10.0 mi South 8.1 mph - N/A   Overcast
5:55 PM 87.8 °F 85.7 °F 53.6 °F 31% 29.81 in 10.0 mi SSE 15.0 mph - N/A   Scattered Clouds
6:15 PM 87.8 °F 85.7 °F 53.6 °F 31% 29.82 in 10.0 mi South 11.5 mph - N/A   Clear
6:35 PM 86.0 °F 84.5 °F 55.4 °F 35% 29.82 in 9.0 mi SSE 10.4 mph - N/A   Clear
6:55 PM 86.0 °F 84.5 °F 55.4 °F 35% 29.83 in 10.0 mi SSE 9.2 mph - N/A   Clear
7:15 PM 86.0 °F 84.5 °F 55.4 °F 35% 29.84 in 10.0 mi SSE 12.7 mph - N/A   Mostly Cloudy
7:35 PM 82.4 °F 82.5 °F 59.0 °F 45% 29.85 in 10.0 mi South 6.9 mph 17.3 mph N/A   Scattered Clouds
7:55 PM 80.6 °F 81.5 °F 60.8 °F 51% 29.87 in 10.0 mi South 13.8 mph - N/A   Clear
8:15 PM 78.8 °F - 60.8 °F 54% 29.87 in 10.0 mi South 10.4 mph - N/A   Clear
8:35 PM 78.8 °F - 60.8 °F 54% 29.88 in 10.0 mi South 10.4 mph - N/A   Clear
8:55 PM 78.8 °F - 60.8 °F 54% 29.89 in 10.0 mi SSE 9.2 mph - N/A   Clear
9:15 PM 78.8 °F - 60.8 °F 54% 29.90 in 10.0 mi SSE 9.2 mph - N/A   Clear
9:35 PM 78.8 °F - 60.8 °F 54% 29.91 in 10.0 mi SW 5.8 mph - N/A   Clear
9:55 PM 78.8 °F - 60.8 °F 54% 29.91 in 10.0 mi SSW 8.1 mph - N/A   Clear
10:15 PM 78.8 °F - 60.8 °F 54% 29.91 in 10.0 mi SSW 11.5 mph - N/A   Clear
10:35 PM 78.8 °F - 60.8 °F 54% 29.92 in 10.0 mi South 10.4 mph - N/A   Scattered Clouds
10:55 PM 78.8 °F - 60.8 °F 54% 29.93 in 10.0 mi South 8.1 mph - N/A   Clear
11:15 PM 78.8 °F - 60.8 °F 54% 29.93 in 10.0 mi South 6.9 mph - N/A   Clear
11:35 PM 77.0 °F - 60.8 °F 57% 29.93 in 10.0 mi South 5.8 mph - N/A   Clear
11:55 PM 77.0 °F - 60.8 °F 57% 29.94 in 10.0 mi South 4.6 mph - N/A   Mostly Cloudy